Weather History for Phoenix Deer Valley, AZ

Change the Weather History Date:

Tuesday, August 20, 2013

  Actual Average Record
Temperature  
Mean Temperature 94 °F -  
Max Temperature 106 °F 99 °F 109 °F (1997)
Min Temperature 82 °F 79 °F 73 °F (2014)
Cooling Degree Days 29    
Growing Degree Days 44 (Base 50)    
Moisture  
Dew Point 53 °F    
Average Humidity 24    
Maximum Humidity 32    
Minimum Humidity 14    
Precipitation  
Precipitation 0.00 in - - ()
Sea Level Pressure  
Sea Level Pressure 29.75 in    
Wind  
Wind Speed 5 mph (SSE)    
Max Wind Speed 24 mph    
Max Gust Speed 31 mph    
Visibility 9 miles    
Events      
Averages and records for this station are not official NWS values.
T = Trace of Precipitation, MM = Missing Value Source: NWS Daily Summary

Daily Weather History Graph

Daily Weather History Graph

Search for Another Location

Airport:

Trip Planner

Search our weather history database for the weather conditions in past years. The results will help you decide how hot, cold, wet, or windy it might be!

Date:

Astronomy

Aug. 20, 2013 Rise Set
Actual Time 5:54 AM MST 7:08 PM MST
Civil Twilight 5:28 AM MST 7:34 PM MST
Nautical Twilight 4:57 AM MST 8:05 PM MST
Astronomical Twilight 4:24 AM MST 8:37 PM MST
Moon 6:45 PM MST (8/20) 5:26 AM MST (8/20)
Length of Visible Light 14h 06m
Length of Day
13h 14m
Full, 100% of the Moon is Illuminated
Aug 20
Full
Aug 20
Full
Aug 28
Last Quarter
Sep 5
New
Sep 12
First Quarter

Hourly Weather History & Observations

Time (MST) Temp. Heat Index Dew Point Humidity Pressure Visibility Wind Dir Wind Speed Gust Speed Precip Events Conditions
12:53 AM 90.0 °F - 51.1 °F 26% 29.74 in 10.0 mi Calm Calm - N/A   Clear
1:53 AM 90.0 °F - 51.1 °F 26% 29.74 in 10.0 mi Calm Calm - N/A   Clear
2:53 AM 89.1 °F - 51.1 °F 27% 29.73 in 10.0 mi NNE 6.9 mph - N/A   Clear
3:53 AM 87.1 °F - 51.1 °F 29% 29.73 in 10.0 mi NNE 6.9 mph - N/A   Clear
4:53 AM 84.0 °F - 50.0 °F 31% 29.74 in 10.0 mi Calm Calm - N/A   Clear
5:53 AM 82.9 °F - 50.0 °F 32% 29.76 in 10.0 mi Calm Calm - N/A   Clear
6:53 AM 86.0 °F - 52.0 °F 31% 29.78 in 10.0 mi Calm Calm - N/A   Clear
7:53 AM 90.0 °F 87.5 °F 53.1 °F 28% 29.80 in 10.0 mi Calm Calm - N/A   Clear
8:53 AM 93.0 °F 91.1 °F 55.0 °F 28% 29.80 in 10.0 mi ESE 8.1 mph - N/A   Clear
9:53 AM 95.0 °F 93.4 °F 55.9 °F 27% 29.80 in 10.0 mi SE 8.1 mph - N/A   Clear
10:53 AM 98.1 °F 96.1 °F 54.0 °F 23% 29.79 in 10.0 mi Calm Calm - N/A   Clear
11:53 AM 100.0 °F 98.8 °F 55.9 °F 23% 29.78 in 10.0 mi South 5.8 mph - N/A   Clear
12:53 PM 102.9 °F 101.4 °F 55.0 °F 20% 29.75 in 10.0 mi Variable 5.8 mph - N/A   Clear
1:53 PM 104.0 °F - 51.1 °F 17% 29.72 in 10.0 mi Calm Calm - N/A   Clear
2:53 PM 105.1 °F - 50.0 °F 16% 29.69 in 10.0 mi WSW 10.4 mph - N/A   Clear
3:53 PM 106.0 °F - 48.0 °F 14% 29.66 in 10.0 mi West 11.5 mph 17.3 mph N/A   Clear
4:53 PM 106.0 °F - 50.0 °F 15% 29.65 in 10.0 mi West 8.1 mph 17.3 mph N/A   Clear
5:53 PM 106.0 °F - 50.0 °F 15% 29.65 in 10.0 mi SW 12.7 mph 20.7 mph N/A   Clear
6:53 PM 104.0 °F - 48.0 °F 15% 29.66 in 10.0 mi SSW 12.7 mph - N/A   Clear
7:53 PM 102.0 °F - 46.9 °F 16% 29.68 in 10.0 mi SW 8.1 mph - N/A   Clear
8:50 PM 96.8 °F 95.1 °F 55.4 °F 25% 29.80 in 6.0 mi SE 16.1 mph - N/A   Haze
8:53 PM 95.0 °F 93.4 °F 55.9 °F 27% 29.72 in 6.0 mi SE 15.0 mph - N/A   Widespread Dust
9:09 PM 95.0 °F 93.0 °F 55.4 °F 26% 29.81 in 6.0 mi SE 11.5 mph - N/A   Widespread Dust
9:41 PM 93.2 °F 91.3 °F 55.4 °F 28% 29.84 in 8.0 mi SE 12.7 mph - N/A   Widespread Dust
9:53 PM 93.0 °F 91.7 °F 57.0 °F 30% 29.75 in 9.0 mi SE 19.6 mph 24.2 mph N/A   Widespread Dust
10:53 PM 91.0 °F 89.7 °F 57.0 °F 32% 29.78 in 10.0 mi SE 24.2 mph 31.1 mph N/A   Widespread Dust
11:53 PM 91.9 °F 90.3 °F 55.9 °F 30% 29.81 in 10.0 mi SE 11.5 mph 17.3 mph N/A   Clear